Rochester, NY

11:07 PM EST on February 12, 2016 (GMT -0500)
Greater Rochester International

Weather History for KROC - March, 2012

Change the Weather History Date:

Wednesday, March 28, 2012

  Actual Average Record
Temperature  
Mean Temperature 55 °F 39 °F  
Max Temperature 69 °F 48 °F 84 °F (1945)
Min Temperature 41 °F 30 °F 5 °F (1923)
Degree Days  
Heating Degree Days 10 26  
Month to date heating degree days 462 876  
Since 1 July heating degree days 4474 5662  
Cooling Degree Days 0 0  
Month to date cooling degree days 5 0  
Year to date cooling degree days 5 0  
Growing Degree Days 6 (Base 50)    
Moisture  
Dew Point 36 °F    
Average Humidity 54    
Maximum Humidity 83    
Minimum Humidity 24    
Precipitation  
Precipitation 0.14 in 0.08 in 0.97 in (1931)
Month to date precipitation 1.02 2.24  
Year to date precipitation 6.47 6.60  
Snow  
Snow 0.00 in 0.30 in 7.50 in (1876)
Month to date snowfall 3.7 15.4  
Since 1 July snowfall 56.1 94.3  
Snow Depth 0.00 in    
Sea Level Pressure  
Sea Level Pressure 29.68 in    
Wind  
Wind Speed 15 mph (West)    
Max Wind Speed 29 mph    
Max Gust Speed 38 mph    
Visibility 10 miles    
Events Rain , Thunderstorm    
T = Trace of Precipitation, MM = Missing Value Source: NWS Daily Summary

Daily Weather History Graph

Daily Weather History Graph

Search for Another Location

Airport or City:

Trip Planner

Search our weather history database for the weather conditions in past years. The results will help you decide how hot, cold, wet, or windy it might be!

Date:

Astronomy

Mar. 28, 2012 Rise Set
Actual Time 6:58 AM EDT 7:32 PM EDT
Civil Twilight 6:30 AM EDT 8:01 PM EDT
Nautical Twilight 5:56 AM EDT 8:35 PM EDT
Astronomical Twilight 5:21 AM EDT 9:10 PM EDT
Moon 10:06 AM EDT (3/28) 12:41 AM EDT (3/28)
Length of Visible Light 13h 31m
Length of Day
12h 34m
Waxing Crescent, 30% of the Moon is Illuminated
Mar 28
Waxing Crescent
Mar 30
First Quarter
Apr 6
Full
Apr 13
Last Quarter
Apr 21
New

Hourly Weather History & Observations

Time (EDT) Temp. Windchill Dew Point Humidity Pressure Visibility Wind Dir Wind Speed Gust Speed Precip Events Conditions
12:54 AM 43.0 °F - 19.0 °F 38% 29.91 in 10.0 mi Calm Calm - N/A   Overcast
1:54 AM 48.0 °F - 15.1 °F 27% 29.85 in 10.0 mi SSW 16.1 mph 21.9 mph N/A   Mostly Cloudy
2:54 AM 50.0 °F - 15.1 °F 25% 29.82 in 10.0 mi SW 17.3 mph 25.3 mph N/A   Mostly Cloudy
3:54 AM 48.9 °F - 18.0 °F 29% 29.80 in 10.0 mi SW 8.1 mph - N/A   Mostly Cloudy
4:31 AM 48.2 °F - 23.0 °F 37% 29.77 in 10.0 mi SW 6.9 mph - 0.00 in Rain , Thunderstorm Light Thunderstorms and Rain
4:54 AM 48.0 °F - 28.0 °F 46% 29.75 in 10.0 mi SSW 5.8 mph - 0.03 in Thunderstorm Thunderstorm
5:23 AM 51.8 °F - 24.8 °F 35% 29.71 in 10.0 mi SSW 10.4 mph - N/A   Overcast
5:54 AM 52.0 °F - 23.0 °F 32% 29.70 in 10.0 mi SSW 13.8 mph 21.9 mph N/A   Overcast
6:29 AM 51.8 °F - 28.4 °F 41% 29.68 in 10.0 mi SSW 12.7 mph - 0.04 in Thunderstorm Thunderstorm
6:54 AM 51.1 °F - 28.9 °F 43% 29.68 in 10.0 mi SSW 16.1 mph 20.7 mph 0.09 in   Overcast
7:54 AM 53.1 °F - 33.1 °F 47% 29.65 in 10.0 mi SSW 10.4 mph - N/A   Overcast
8:54 AM 55.0 °F - 37.0 °F 51% 29.62 in 10.0 mi SSW 11.5 mph - N/A   Mostly Cloudy
9:54 AM 64.0 °F - 44.1 °F 48% 29.60 in 10.0 mi WSW 20.7 mph 29.9 mph N/A   Scattered Clouds
10:54 AM 66.0 °F - 46.0 °F 48% 29.59 in 10.0 mi West 20.7 mph 31.1 mph N/A   Partly Cloudy
11:54 AM 66.0 °F - 46.0 °F 48% 29.57 in 10.0 mi West 19.6 mph 31.1 mph N/A   Partly Cloudy
12:54 PM 66.0 °F - 46.9 °F 50% 29.54 in 10.0 mi West 17.3 mph - N/A   Partly Cloudy
1:54 PM 66.9 °F - 46.0 °F 47% 29.54 in 10.0 mi WNW 25.3 mph 34.5 mph N/A   Partly Cloudy
2:54 PM 68.0 °F - 46.9 °F 47% 29.53 in 10.0 mi West 23.0 mph 38.0 mph N/A   Scattered Clouds
3:54 PM 64.0 °F - 46.9 °F 54% 29.56 in 10.0 mi West 16.1 mph 29.9 mph N/A   Overcast
4:14 PM 60.8 °F - 44.6 °F 55% 29.58 in 10.0 mi NNW 19.6 mph 25.3 mph N/A   Overcast
4:54 PM 55.9 °F - 43.0 °F 62% 29.61 in 10.0 mi North 17.3 mph 24.2 mph N/A   Overcast
5:54 PM 52.0 °F - 39.9 °F 63% 29.64 in 10.0 mi NNW 11.5 mph - N/A   Overcast
6:42 PM 51.8 °F - 41.0 °F 67% 29.67 in 10.0 mi NW 15.0 mph 20.7 mph N/A   Overcast
6:54 PM 50.0 °F - 41.0 °F 71% 29.68 in 10.0 mi NNW 9.2 mph 18.4 mph N/A   Overcast
7:54 PM 48.0 °F - 41.0 °F 77% 29.70 in 10.0 mi NW 9.2 mph 20.7 mph 0.00 in Rain Light Rain
8:15 PM 48.2 °F - 41.0 °F 76% 29.70 in 10.0 mi WNW 6.9 mph - 0.00 in   Overcast
8:54 PM 48.0 °F - 41.0 °F 77% 29.72 in 10.0 mi WNW 10.4 mph - 0.00 in Rain Light Rain
9:12 PM 48.2 °F - 41.0 °F 76% 29.73 in 10.0 mi WNW 10.4 mph - 0.00 in Rain Light Rain
9:54 PM 48.0 °F - 39.0 °F 71% 29.74 in 10.0 mi WNW 12.7 mph 21.9 mph 0.00 in Rain Light Rain
10:54 PM 44.1 °F 38.1 °F 39.9 °F 85% 29.75 in 10.0 mi NW 11.5 mph 21.9 mph 0.02 in Rain Light Rain
11:54 PM 43.0 °F 35.7 °F 37.9 °F 82% 29.75 in 10.0 mi WNW 15.0 mph - 0.00 in Rain Light Rain